Contract 0x80b12bd0f1793bf6cea767fa83eb2068eaa17dc8 3

 

Overview

Balance:
521.918258068979908035 MATIC

MATIC Value:
$638.83 (@ $1.22/MATIC)

Token:
 
Txn Hash
Method
Block
From
To
Value [Txn Fee]
0x43e296848b5b8482685b6daa72889bcc100af30cfde2de7ae02da54b2579e7a1Create Override ...387455522023-01-31 13:42:457 days 1 hr ago0x80b12bd0f1793bf6cea767fa83eb2068eaa17dc8OUT 0x734513f61a65b3745fc7bb574adfe18379355a1c0 MATIC0.046296307134 131.205649759
0x3a3344993cdf3744eddae914d7b431197691a135b4cf6ad4c0a4d715fdb3169fCreate Override ...387455272023-01-31 13:41:517 days 1 hr ago0x80b12bd0f1793bf6cea767fa83eb2068eaa17dc8OUT 0x734513f61a65b3745fc7bb574adfe18379355a1c0 MATIC0.046809990279 132.689276514
0xa64b083df17ebb1109ac490a20462c9b1c666c670172e706223ee2355cca2b63Deliver387375782023-01-31 8:54:597 days 6 hrs ago0x80b12bd0f1793bf6cea767fa83eb2068eaa17dc8OUT 0xfe6012470f3ab874403527177fd45d84c24a051b0 MATIC0.32776249110
0x4c904dc28e288859cc7cef213a37898159523d4ae3bce7fe0e44773ffd0a89b0Deliver387375672023-01-31 8:54:357 days 6 hrs ago0x80b12bd0f1793bf6cea767fa83eb2068eaa17dc8OUT 0xfe6012470f3ab874403527177fd45d84c24a051b0 MATIC0.56261777110
0xa0100b5c1cf3002416f609039ef7cf7a9a90a4de8cc4ddca75091cf054f66104Deliver387375642023-01-31 8:54:297 days 6 hrs ago0x80b12bd0f1793bf6cea767fa83eb2068eaa17dc8OUT 0xfe6012470f3ab874403527177fd45d84c24a051b0 MATIC0.60101129110
0xd75563f382b37a9dee48ade2961d2388f340350ef120adddff477fde2dce6ae0Deliver387375612023-01-31 8:54:237 days 6 hrs ago0x80b12bd0f1793bf6cea767fa83eb2068eaa17dc8OUT 0xfe6012470f3ab874403527177fd45d84c24a051b0 MATIC1.04208533110
0x3fd40f1a02bdc7dc3d44ce240c4405e2a4b6720d67dbfefed7a60b8570dcb6c9Deliver387375572023-01-31 8:54:157 days 6 hrs ago0x80b12bd0f1793bf6cea767fa83eb2068eaa17dc8OUT 0xfe6012470f3ab874403527177fd45d84c24a051b0 MATIC0.95274773110
0xb01a754f4887fcb4beedb44c5b49f60706f32450fd496c8690e1f767ae08cab4Deliver387375542023-01-31 8:54:097 days 6 hrs ago0x80b12bd0f1793bf6cea767fa83eb2068eaa17dc8OUT 0xfe6012470f3ab874403527177fd45d84c24a051b0 MATIC0.67166825110
0xb7c88f8f641c87232c26dafe89ebfd05b02151d0c59e99f67b033f2514a21ff7Deliver387375512023-01-31 8:54:017 days 6 hrs ago0x80b12bd0f1793bf6cea767fa83eb2068eaa17dc8OUT 0xfe6012470f3ab874403527177fd45d84c24a051b0 MATIC0.65434325110
0x0185e54a6db3506cb4425421c13b374db3bc1f2a3aa78120b416cabd92c3d4d4Deliver387375482023-01-31 8:53:557 days 6 hrs ago0x80b12bd0f1793bf6cea767fa83eb2068eaa17dc8OUT 0xfe6012470f3ab874403527177fd45d84c24a051b0 MATIC0.64841645110
0x3188aea73559a55fc49b85b7f919ba03ad4f4a59f3cbedf28e3ebc07755d60a8Deliver387375452023-01-31 8:53:497 days 6 hrs ago0x80b12bd0f1793bf6cea767fa83eb2068eaa17dc8OUT 0xfe6012470f3ab874403527177fd45d84c24a051b0 MATIC0.69470225110
0xe2ae73bc358d0c546fec758e9b5513009e9e5fc2f6c0c16bad39a720d3e6e198Deliver387375412023-01-31 8:53:417 days 6 hrs ago0x80b12bd0f1793bf6cea767fa83eb2068eaa17dc8OUT 0xfe6012470f3ab874403527177fd45d84c24a051b0 MATIC0.67302389110
0x4dd04599f75b75606bbe429ae90b2c1d41fd39d8402919e0738aeb75a8f95fa1Deliver387375372023-01-31 8:53:337 days 6 hrs ago0x80b12bd0f1793bf6cea767fa83eb2068eaa17dc8OUT 0xfe6012470f3ab874403527177fd45d84c24a051b0 MATIC0.67330637110
0xde3fe9eda65af5f343955efe8bdaab24caa33bea260909bc8cad7fcfda9f1101Deliver387375342023-01-31 8:53:257 days 6 hrs ago0x80b12bd0f1793bf6cea767fa83eb2068eaa17dc8OUT 0xfe6012470f3ab874403527177fd45d84c24a051b0 MATIC0.65243717110
0x1bdb01b4be468fb620daad9fdc061c2584fd128692bca22e0cb105d4beacdf27Deliver387375302023-01-31 8:53:177 days 6 hrs ago0x80b12bd0f1793bf6cea767fa83eb2068eaa17dc8OUT 0xfe6012470f3ab874403527177fd45d84c24a051b0 MATIC0.67392149110
0xfe560bcc442aa18055fc3316fb20982cf32cc0478e62425f82c33127b39b74d8Deliver387375272023-01-31 8:53:117 days 6 hrs ago0x80b12bd0f1793bf6cea767fa83eb2068eaa17dc8OUT 0xfe6012470f3ab874403527177fd45d84c24a051b0 MATIC0.66442673110
0x7111baa698ab46265221e7999d04b464589f60924f2f951b261c2afec3998b8aDeliver387375232023-01-31 8:53:037 days 6 hrs ago0x80b12bd0f1793bf6cea767fa83eb2068eaa17dc8OUT 0xfe6012470f3ab874403527177fd45d84c24a051b0 MATIC0.68055317110
0x96b0cc2b968e8bf87335869760dffe506a8e89e75b4b1c5bd2be957b63b1f942Deliver387375202023-01-31 8:52:577 days 6 hrs ago0x80b12bd0f1793bf6cea767fa83eb2068eaa17dc8OUT 0xfe6012470f3ab874403527177fd45d84c24a051b0 MATIC0.67518473110
0x66718a46a275f2f08c40ce24883f9be3bf1aee54b2ac4b6156e19b90cba86a31Deliver387375182023-01-31 8:52:517 days 6 hrs ago0x80b12bd0f1793bf6cea767fa83eb2068eaa17dc8OUT 0xfe6012470f3ab874403527177fd45d84c24a051b0 MATIC0.68007929110
0xad4c2c3fcf393c9bf0e6b9936d73928d5d8619216e0f886a466ed2a564dadfb8Deliver387375142023-01-31 8:52:437 days 6 hrs ago0x80b12bd0f1793bf6cea767fa83eb2068eaa17dc8OUT 0xfe6012470f3ab874403527177fd45d84c24a051b0 MATIC0.67948397110
0xe4a996dbb30d34777cc714abe3c408bccaaf4161ed0cf5f98097522fd20a8bb6Deliver387375112023-01-31 8:52:377 days 6 hrs ago0x80b12bd0f1793bf6cea767fa83eb2068eaa17dc8OUT 0xfe6012470f3ab874403527177fd45d84c24a051b0 MATIC0.65781749110
0xb33ca4ed67ec005eba900bbc091c139990b49851f7306770b5eeeb1cd238356bDeliver387375082023-01-31 8:52:317 days 6 hrs ago0x80b12bd0f1793bf6cea767fa83eb2068eaa17dc8OUT 0xfe6012470f3ab874403527177fd45d84c24a051b0 MATIC0.67363769110
0xa6b463ee9f0568a26aeabd13efcd41cdefea90c28458798ba548973763ab7f22Deliver387375042023-01-31 8:52:237 days 6 hrs ago0x80b12bd0f1793bf6cea767fa83eb2068eaa17dc8OUT 0xfe6012470f3ab874403527177fd45d84c24a051b0 MATIC0.68062709110
0xf153ea18ac0a4e7575e1b4effd8a829611a80dcf14cf8c4d408bedcaeba05e45Deliver387375002023-01-31 8:52:137 days 6 hrs ago0x80b12bd0f1793bf6cea767fa83eb2068eaa17dc8OUT 0xfe6012470f3ab874403527177fd45d84c24a051b0 MATIC0.66934373110
0xd8544c1591a01dad2de713f51c88b6ccbc9efde8bfacd1c3b70faf79047f5b0fDeliver387374962023-01-31 8:52:057 days 6 hrs ago0x80b12bd0f1793bf6cea767fa83eb2068eaa17dc8OUT 0xfe6012470f3ab874403527177fd45d84c24a051b0 MATIC0.71200085110
[ Download CSV Export 
Latest 1 internal transaction
Parent Txn Hash Block From To Value
0xad9d8d4759b6ece5d019ca952f05c245cd59fc269df9c504de05d13ffe1d518f162848222021-06-29 11:11:41588 days 4 hrs ago 0x44b2ab937c9a024f9ec3c8c3471e0352a061e0630x80b12bd0f1793bf6cea767fa83eb2068eaa17dc80 MATIC
[ Download CSV Export 
Loading
Contract Self Destruct called at Txn Hash 0xad9d8d4759b6ece5d019ca952f05c245cd59fc269df9c504de05d13ffe1d518f


0x
Block Transaction Gas Used Reward
Age Block Fee Address BC Fee Address Voting Power Jailed Incoming
Block Uncle Number Difficulty Gas Used Reward
Loading
Loading
Make sure to use the "Vote Down" button for any spammy posts, and the "Vote Up" for interesting conversations.